Location: Vinland
(47.7731°N, 122.6974°W)
Time: 18:37:57
(UTC+00:00)

Vanguard 1 Rocket - Pass Details

Date: 28 March 2023
Orbit: 655 x 4220 km, 34.3° (Epoch: 05 June)

Event Time Altitude Azimuth Distance (km) Brightness Sun altitude
Exits shadow 12:34:02 16° 229° (SW) 3,438 9.7 -14.5°
Maximum altitude 12:34:24 16° 227° (SW) 3,392 9.7 -14.4°
Drops below altitude 10° 12:38:56 10° 193° (SSW) 3,246 9.9 -13.7°
Sets 12:42:32 0° 170° (S) 3,765 10.5 -13.1°
